Hurlburt Field, FL

3:49 AM CST on February 25, 2017 (GMT -0600)
Hurlburt

Weather History for KHRT - August, 2013

Change the Weather History Date:

Friday, August 9, 2013

  Actual Average Record
Temperature  
Mean Temperature 82 °F -  
Max Temperature 88 °F 87 °F 95 °F (2011)
Min Temperature 77 °F 73 °F 66 °F (2008)
Cooling Degree Days 18    
Growing Degree Days 32 (Base 50)    
Moisture  
Dew Point 74 °F    
Average Humidity 77    
Maximum Humidity 94    
Minimum Humidity 59    
Precipitation  
Precipitation 0.00 in - - ()
Sea Level Pressure  
Sea Level Pressure 30.02 in    
Wind  
Wind Speed 5 mph (East)    
Max Wind Speed 14 mph    
Max Gust Speed -    
Visibility 10 miles    
Events Rain    
Averages and records for this station are not official NWS values.
T = Trace of Precipitation, MM = Missing Value Source: NWS Daily Summary

Daily Weather History Graph

Daily Weather History Graph

Search for Another Location

Airport or City:

Trip Planner

Search our weather history database for the weather conditions in past years. The results will help you decide how hot, cold, wet, or windy it might be!

Date:

Astronomy

Aug. 09, 2013 Rise Set
Actual Time 6:10 AM CDT 7:33 PM CDT
Civil Twilight 5:44 AM CDT 7:59 PM CDT
Nautical Twilight 5:13 AM CDT 8:29 PM CDT
Astronomical Twilight 4:42 AM CDT 9:01 PM CDT
Moon 8:39 AM CDT (8/9) 9:01 PM CDT (8/9)
Length of Visible Light 14h 14m
Length of Day
13h 23m
Waxing Crescent, 8% of the Moon is Illuminated
Aug 9
Waxing Crescent
Aug 14
First Quarter
Aug 20
Full
Aug 28
Last Quarter
Sep 5
New

Hourly Weather History & Observations

Time (CDT) Temp. Heat Index Dew Point Humidity Pressure Visibility Wind Dir Wind Speed Gust Speed Precip Events Conditions
2:43 AM 78.8 °F - 75.2 °F 89% 29.96 in 10.0 mi ENE 4.6 mph - N/A Rain Light Rain
2:48 AM 78.8 °F - 75.2 °F 89% 29.96 in 10.0 mi Variable 1.2 mph - N/A Rain Light Rain
2:58 AM 78.8 °F - 75.2 °F 89% 29.97 in 10.0 mi NW 3.5 mph - 0.00 in   Mostly Cloudy
3:03 AM 78.8 °F - 75.2 °F 89% 29.96 in 10.0 mi Variable 1.2 mph - N/A   Overcast
3:18 AM 77.0 °F - 75.2 °F 94% 29.96 in 10.0 mi North 6.9 mph - N/A   Mostly Cloudy
3:58 AM 78.6 °F - 75.2 °F 89% 29.97 in 10.0 mi ESE 2.3 mph - N/A   Scattered Clouds
4:58 AM 77.0 °F - 74.5 °F 92% 29.97 in 10.0 mi North 5.8 mph - N/A   Mostly Cloudy
6:28 AM 77.0 °F - 73.4 °F 89% 29.98 in 10.0 mi North 5.8 mph - N/A   Mostly Cloudy
6:38 AM 77.0 °F - 73.4 °F 89% 29.99 in 10.0 mi North 6.9 mph - N/A   Mostly Cloudy
6:53 AM 77.0 °F - 75.2 °F 94% 29.99 in 10.0 mi NNE 4.6 mph - N/A   Mostly Cloudy
7:58 AM 80.6 °F 86.2 °F 75.2 °F 84% 30.02 in 10.0 mi East 6.9 mph - N/A   Scattered Clouds
9:35 AM 80.6 °F 86.2 °F 75.2 °F 84% 30.04 in 10.0 mi SE 10.4 mph - N/A   Scattered Clouds
9:55 AM 86.0 °F 96.9 °F 77.0 °F 74% 30.03 in 10.0 mi SE 10.4 mph - N/A   Clear
10:58 AM 86.9 °F 96.8 °F 75.7 °F 69% 30.06 in 10.0 mi SE 13.8 mph - N/A   Clear
11:58 AM 88.2 °F 95.0 °F 72.0 °F 59% 30.05 in 10.0 mi SE 11.5 mph - N/A   Clear
12:58 PM 88.2 °F 96.4 °F 73.8 °F 62% 30.03 in 10.0 mi SSE 10.4 mph - N/A   Clear
1:58 PM 88.5 °F 97.8 °F 74.5 °F 63% 30.02 in 10.0 mi SSE 12.7 mph - N/A   Clear
2:58 PM 88.0 °F 98.5 °F 75.7 °F 67% 30.00 in 10.0 mi SE 11.5 mph - N/A   Clear
3:58 PM 88.5 °F 99.4 °F 75.9 °F 66% 29.99 in 10.0 mi SSE 11.5 mph - N/A   Scattered Clouds
4:58 PM 87.6 °F 96.7 °F 74.5 °F 65% 29.99 in 10.0 mi SE 9.2 mph - N/A   Partly Cloudy
5:58 PM 85.8 °F 93.8 °F 74.3 °F 68% 30.00 in 10.0 mi SSE 8.1 mph - N/A   Clear
6:58 PM 86.0 °F 95.1 °F 75.2 °F 70% 30.02 in 10.0 mi SE 5.8 mph - N/A   Mostly Cloudy
7:58 PM 84.6 °F 92.1 °F 74.1 °F 71% 30.03 in 10.0 mi SE 5.8 mph - N/A   Clear
8:58 PM 83.8 °F 90.8 °F 74.1 °F 72% 30.05 in 10.0 mi SE 4.6 mph - N/A   Clear
9:31 PM 84.2 °F 90.9 °F 73.4 °F 70% 30.05 in 10.0 mi ESE 2.3 mph - N/A   Light Drizzle
9:40 PM 82.4 °F 88.2 °F 73.4 °F 74% 30.05 in 10.0 mi ESE 2.3 mph - N/A   Clear
9:58 PM 83.3 °F 89.6 °F 73.4 °F 72% 30.05 in 10.0 mi ESE 2.3 mph - 0.00 in   Clear
10:58 PM 82.9 °F 88.5 °F 72.9 °F 71% 30.06 in 10.0 mi NNE 2.3 mph - N/A   Clear
11:25 PM 82.4 °F 88.2 °F 73.4 °F 74% 30.06 in 10.0 mi NNW 3.5 mph - N/A   Light Drizzle
11:35 PM 82.4 °F 88.2 °F 73.4 °F 74% 30.06 in 10.0 mi NNW 1.2 mph - N/A   Clear
11:36 PM 82.4 °F 88.2 °F 73.4 °F 74% 30.06 in 10.0 mi NNW 2.3 mph - N/A   Light Drizzle
11:46 PM 82.4 °F 88.2 °F 73.4 °F 74% 30.06 in 10.0 mi North 2.3 mph - N/A   Partly Cloudy
11:58 PM 81.9 °F 87.7 °F 73.9 °F 77% 30.07 in 10.0 mi NNW 3.5 mph - 0.00 in   Scattered Clouds